Weather in Piskaly

Russia / Samara Oblast     53°37′57″N   49°49′13″E
temp.,
°C
wind,
m/s
gust,
m/s
humid.,
%
clouds,
%
prec.,
mm/h
press.,
hPa
HPBL,
m
4 march, thu
thu401:00−10w459593 0.1 100786
04:00−11sw449792 0.1 100780
07:00−8sw6119493 0.5 1005339
10:00−6sw8149596 0.6 1004523
13:00−1sw91388100 0.3 10011041
16:000wsw101695100 1.3 9991058
19:000wsw101697100 0.8 998994
22:000wsw81495100 1.3 1000863
5 march, fri
fri501:00−1wsw71297100 1.1 1000602
04:00−2w4898100 3.6 1000411
07:00−3n2398100 2.5 1000121
10:00−3n3596100 3.9 1001315
13:00−3n4593100 0.6 1003492
16:00−4nw458999 0.7 1006450
19:00−11nw349334 0.0 100932
22:00−12wnw228417 0.0 101221
6 march, sat
sat601:00−13wsw33906 0.0 101322
04:00−13sw34929 0.0 101355
07:00−11sw479561 0.1 1014143
10:00−10wsw359680 0.3 1014163
13:00−9wnw479094 0.0 1014377
16:00−10nw479098 0.0 1014343
19:00−14nw3495100 0.0 101464
22:00−16nnw2391100 0.0 101526
7 march, sun
sun701:00−18nnw239931 0.0 101421
04:00−19nw339941 0.0 101424
07:00−20wnw221003 0.0 101420
10:00−16sw34947 0.0 1014129
13:00−11sw598746 0.0 1013381
16:00−10ssw6109272 0.0 1011458
19:00−10ssw7139399 0.1 1009416
22:00−8ssw81494100 0.3 1008637
8 march, mon
mon801:00−7ssw91694100 0.8 1003875
04:00−6sw101791100 1.4 1001893
07:00−7w51282100 1.2 1001638
10:00−9sw588361 1.2 1004255
13:00−5ssw597230 0.0 1004574
16:00−3sse7119665 0.6 1001774
19:00−2ssw101790100 1.0 997954
22:00−9wsw10187883 2.0 999784